Wetbulb
54.00 53.94 53.81 53.64 53.51 53.57 53.49 53.69 53.67 53.82 53.95 54.08 54.21 54.29 54.54 54.32 54.47 52.05 47.88 53.57 57.92 61.39 59.42 56.15 56.55 54.90 54.13 56.03 57.25 55.89 47.53 45.54 46.44 47.50 48.97 53.44 52.68 55.90 56.49 55.16 56.97 59.00 59.91 69.12 71.33
53.55 53.51 53.41 53.47 53.41 53.36 53.31 53.29 53.44 53.53 53.61 53.72 53.81 53.98 54.00 54.25 50.54 48.21 55.29 61.35 61.77 63.11 55.72 54.22 51.76 55.41 50.47 51.93 55.34 52.31 47.94 46.63 50.48 51.29 50.63 52.40 53.04 54.05 52.60 52.36 53.18 54.67 57.96 68.83 70.14
52.94 53.07 53.17 53.29 53.24 53.25 53.10 53.35 53.52 53.78 53.79 53.71 53.65 53.29 53.39 53.05 47.48 49.65 60.98 63.85 64.35 62.69 55.39 54.73 54.52 51.80 51.00 50.66 50.99 52.55 48.62 50.54 50.67 52.36 53.25 52.61 52.66 55.07 52.09 50.29 52.29 52.35 54.96 63.89 67.97
52.65 53.07 53.09 52.98 52.98 53.12 53.11 53.45 53.58 53.96 53.92 53.82 53.41 53.55 53.60 50.99 38.85 58.37 61.16 60.64 60.32 58.71 55.16 52.50 51.83 49.21 47.17 48.76 51.17 48.01 51.90 52.00 52.25 53.09 52.66 52.01 54.01 52.43 52.72 52.91 55.22 55.05 56.54 60.67 63.59
52.55 52.85 52.93 52.88 52.78 53.07 53.76 53.74 53.50 53.60 53.68 53.24 53.31 53.89 51.94 45.89 45.88 53.44 60.52 60.05 58.15 56.81 53.70 52.10 50.03 49.06 46.79 48.50 51.36 48.75 50.67 52.87 52.94 52.41 52.24 53.34 51.86 51.95 52.15 54.59 56.11 56.38 56.21 55.75 62.41
52.26 52.66 52.79 52.85 52.59 53.56 53.66 53.80 53.70 53.94 53.55 53.47 53.64 53.78 47.91 40.66 53.25 54.18 53.18 52.53 52.83 54.67 54.62 54.79 52.69 53.10 50.31 49.33 49.76 52.16 51.41 52.49 52.58 51.69 52.03 50.84 51.33 51.62 52.53 55.08 54.69 55.30 54.88 55.63 58.34
53.12 53.22 53.27 53.41 53.04 52.63 52.98 53.18 53.16 53.76 53.80 54.27 54.36 52.36 46.28 45.04 54.25 54.77 54.15 52.63 51.95 51.63 52.20 54.89 55.72 53.39 52.49 49.53 52.46 51.82 49.43 51.13 51.95 52.20 50.96 52.17 48.75 48.87 52.40 54.04 53.75 54.14 54.93 55.04 55.86
52.93 52.81 53.01 53.22 53.30 52.18 52.65 53.14 53.28 53.86 54.23 55.05 55.15 52.26 43.46 54.04 55.77 53.69 54.11 52.23 53.25 53.01 51.50 51.93 55.17 53.36 52.56 52.70 50.66 48.46 49.19 45.56 50.71 51.72 52.00 50.43 45.14 50.25 52.36 52.68 52.33 53.34 53.75 54.42 55.86
52.73 52.49 52.87 53.16 53.32 53.41 52.99 52.76 53.61 54.38 54.69 55.16 52.27 49.44 45.17 56.56 51.22 53.70 53.50 50.60 50.77 51.16 51.76 52.55 51.13 48.93 51.57 47.24 45.00 47.27 43.60 45.22 47.08 51.65 50.79 49.15 45.95 50.77 52.85 52.73 52.88 53.63 53.49 53.91 55.06
52.29 52.28 52.51 52.83 53.12 52.79 52.56 52.65 54.25 55.28 55.18 54.43 52.80 46.01 50.21 48.02 51.17 51.83 52.88 52.18 49.48 49.93 47.28 47.02 47.25 44.36 45.63 45.86 39.03 42.22 43.49 45.83 45.30 49.43 49.81 48.21 47.41 50.14 52.06 52.20 52.63 53.45 53.66 54.06 55.13
51.60 51.99 51.96 52.33 52.60 52.25 51.86 52.38 50.08 49.52 51.36 47.18 47.14 47.16 48.52 51.99 53.04 50.92 52.06 49.61 47.60 46.13 41.14 43.64 39.40 39.30 42.04 46.48 46.47 46.34 45.20 44.26 47.64 49.96 48.93 48.28 48.37 48.83 52.15 51.98 52.35 52.80 53.72 54.41 55.66
51.37 52.06 52.20 52.14 52.25 52.33 52.12 50.45 49.70 50.02 42.29 48.65 48.73 48.15 50.02 50.83 46.16 49.09 52.12 44.40 42.37 37.97 42.61 39.11 35.25 42.21 46.09 46.71 46.51 45.58 44.62 44.57 47.64 49.87 49.11 48.86 47.66 50.38 51.53 52.06 52.99 53.40 53.94 54.99 55.77
51.45 51.52 51.85 52.14 51.96 52.66 53.17 51.69 54.69 52.81 42.38 44.97 48.91 48.00 47.93 49.77 45.81 46.96 49.27 46.69 41.94 38.64 38.97 36.75 39.61 43.32 44.40 43.72 43.83 44.98 43.97 45.24 46.05 48.57 49.44 48.29 45.80 48.14 51.14 52.66 53.19 54.47 55.48 56.02 56.06
50.78 50.99 51.31 51.65 50.63 53.67 52.25 54.18 55.07 53.07 36.13 41.00 44.35 47.06 49.34 49.18 43.93 51.61 50.15 45.01 42.70 38.23 39.76 38.68 43.41 41.03 40.96 41.99 44.72 41.44 47.46 47.12 46.85 46.25 42.43 48.52 39.25 47.30 49.79 50.27 52.12 53.76 54.54 55.44 56.13
50.61 50.80 50.97 50.87 50.09 51.21 52.91 54.89 55.14 51.02 28.69 44.10 44.88 52.28 49.81 45.80 45.92 46.21 51.00 45.96 38.58 40.45 39.94 36.97 40.86 40.17 38.35 40.60 45.01 44.07 48.15 47.05 46.94 45.85 45.97 45.11 41.61 46.34 49.76 48.92 50.84 53.08 54.47 55.55 56.72
50.44 50.76 50.80 53.42 53.81 54.85 54.77 55.13 53.29 37.72 29.03 40.96 44.56 43.63 44.07 46.62 46.76 47.25 46.10 47.54 44.43 39.92 41.36 40.91 45.20 43.43 41.96 42.89 44.21 47.79 46.58 46.49 47.08 45.80 39.65 44.27 42.34 43.08 46.89 49.47 51.57 53.28 54.12 55.70 56.22
50.42 50.30 50.29 53.42 50.57 54.77 54.92 51.52 38.25 31.92 43.01 38.45 39.11 42.75 41.90 41.77 42.80 43.69 41.63 37.06 35.97 32.33 32.80 38.59 39.87 43.44 45.05 41.16 43.72 43.67 42.63 37.14 36.25 36.67 37.30 45.94 43.04 45.58 50.90 52.46 52.98 52.82 53.87 55.70 56.91
49.57 48.87 53.88 55.52 55.79 55.92 53.11 45.36 32.80 38.77 38.05 42.47 41.57 41.71 38.02 41.30 40.07 40.91 39.39 37.41 38.76 37.23 35.39 32.20 31.80 39.81 43.86 40.95 40.85 41.64 42.38 35.70 31.32 32.47 38.17 45.62 41.21 45.64 52.82 55.19 54.58 54.57 54.76 55.96 56.31
48.63 55.83 54.85 55.25 56.58 55.87 48.60 37.61 35.09 37.54 40.49 38.47 40.24 37.35 37.46 39.31 38.31 38.83 39.13 35.67 39.37 38.03 33.91 33.30 34.93 42.11 43.54 44.90 44.36 41.01 38.65 45.72 41.45 42.98 39.62 42.92 45.81 51.35 53.86 53.61 53.75 53.53 54.41 54.96 56.81
49.25 52.76 53.55 56.24 57.57 53.33 44.35 36.11 39.20 42.47 42.15 41.64 35.21 37.46 32.72 35.34 34.63 35.24 37.58 40.34 38.21 41.87 42.51 39.33 34.54 41.37 43.04 45.78 45.47 43.91 46.82 38.60 41.80 34.61 34.47 40.75 42.37 44.67 50.32 52.37 53.39 53.99 56.02 58.49 61.28
51.60 49.43 53.37 56.40 56.54 48.17 40.24 38.86 41.62 44.35 43.64 38.95 37.62 36.21 37.11 34.82 34.72 33.95 36.61 39.26 39.80 39.35 42.35 39.35 39.93 38.43 42.66 41.29 39.17 41.62 40.71 44.03 44.66 43.37 38.21 36.85 41.61 53.09 52.76 53.95 54.04 56.13 57.90 58.80 59.89
50.40 44.48 53.55 55.63 45.28 44.62 39.78 41.22 42.22 42.34 44.38 42.02 42.03 39.49 36.29 35.98 34.78 34.24 36.34 38.05 42.07 41.75 37.26 42.51 39.86 36.18 38.32 45.05 46.78 45.65 43.59 44.79 40.16 39.00 41.71 41.31 42.79 53.98 55.63 55.43 55.33 55.15 57.86 59.25 61.46
47.24 47.37 52.79 53.33 39.42 40.10 42.47 41.71 43.12 40.96 40.78 41.12 39.16 41.07 40.25 35.64 32.48 36.93 38.93 43.90 43.54 40.66 37.82 42.20 37.89 33.87 35.54 41.20 45.24 41.88 44.69 45.54 46.44 46.45 41.88 38.40 41.99 52.41 54.93 53.46 53.90 54.30 56.43 57.87 59.33
47.56 41.30 46.52 48.38 47.48 42.78 40.68 40.73 39.27 43.91 42.32 42.12 41.32 41.65 39.85 37.19 38.69 36.52 37.21 41.89 43.27 42.29 45.33 42.84 37.90 38.11 33.30 37.15 41.30 38.48 41.26 44.90 46.04 40.69 41.55 40.80 43.87 47.78 50.07 51.02 53.68 54.60 56.31 57.25 57.76
46.44 42.34 43.94 39.39 42.04 42.59 44.15 42.16 39.00 37.20 41.58 43.57 39.41 39.29 38.51 33.93 36.62 36.30 38.99 40.73 42.87 43.55 42.62 42.40 37.49 40.71 41.99 42.36 42.84 42.48 41.48 43.92 43.25 44.95 40.75 43.53 43.87 46.56 49.57 51.13 52.50 53.68 53.90 54.20 54.95
42.10 39.83 42.41 40.40 44.81 43.61 42.64 40.76 39.25 39.94 39.89 39.07 37.91 39.84 40.82 37.02 38.20 35.40 39.45 40.63 39.07 41.25 39.69 43.29 38.36 42.24 40.13 42.37 42.39 39.85 42.84 43.54 44.97 45.37 46.46 45.61 44.09 49.56 50.10 51.20 50.65 51.74 52.16 52.15 52.29
47.10 47.44 41.45 40.46 42.67 42.04 41.25 41.05 40.63 41.76 42.15 43.36 41.48 39.96 39.11 41.32 44.31 45.19 46.00 46.00 43.64 40.77 40.36 36.83 40.23 40.59 36.36 41.38 40.82 33.55 41.27 44.30 45.71 46.35 47.67 42.89 45.47 48.04 47.41 48.51 49.84 50.41 51.32 51.20 51.46
MSLP
1019.98 1019.56 1019.11 1018.66 1018.25 1017.83 1017.37 1016.93 1016.49 1016.07 1015.70 1015.33 1014.78 1014.62 1014.30 1013.85 1013.09 1011.42 1009.23 1007.43 1007.27 1007.09 1007.79 1007.42 1006.43 1005.91 1005.87 1004.87 1003.65 1003.15 1001.95 999.36 998.04 997.07 996.15 995.15 994.03 993.70 994.40 994.67 995.20 995.84 996.42 997.85 998.87
1020.05 1019.53 1019.07 1018.62 1018.19 1017.73 1017.28 1016.79 1016.34 1015.91 1015.53 1015.12 1014.83 1014.65 1014.09 1013.69 1012.49 1009.62 1006.82 1006.41 1006.37 1006.78 1006.98 1006.64 1005.77 1004.91 1004.80 1003.91 1002.97 1001.84 1000.50 998.41 998.42 997.01 995.75 995.12 994.32 993.85 994.84 995.81 996.44 996.63 996.85 997.93 999.10
1020.06 1019.57 1019.07 1018.57 1018.05 1017.51 1017.00 1016.52 1016.13 1015.75 1015.28 1015.13 1014.70 1014.27 1014.12 1013.79 1011.25 1005.63 1006.16 1005.92 1005.36 1005.72 1006.07 1006.20 1005.75 1004.73 1003.45 1003.17 1002.13 1000.93 998.52 998.99 998.14 996.95 995.90 994.93 994.48 993.98 994.65 995.89 996.74 996.84 996.97 997.87 999.07
1019.97 1019.40 1018.75 1018.11 1017.45 1016.89 1016.39 1015.93 1015.70 1015.37 1014.95 1014.83 1014.64 1014.33 1013.94 1013.36 1009.36 1004.96 1005.67 1005.93 1005.75 1005.42 1005.75 1005.51 1005.09 1004.12 1002.95 1001.31 1001.32 1000.35 999.23 998.79 997.69 996.75 996.06 995.12 994.72 994.24 994.74 995.72 996.29 996.94 997.18 997.64 998.53
1019.71 1019.16 1018.58 1018.04 1017.46 1016.85 1016.19 1015.52 1015.04 1014.61 1014.40 1014.11 1014.01 1013.94 1013.51 1011.46 1007.27 1006.19 1005.31 1005.49 1005.57 1005.61 1004.87 1004.75 1004.22 1003.71 1001.70 1000.96 1000.40 999.03 998.38 998.19 997.91 997.08 996.39 995.83 995.21 995.12 995.19 996.00 996.22 996.53 996.81 997.33 998.07
1019.63 1019.05 1018.45 1017.77 1017.05 1016.37 1015.66 1014.94 1014.18 1013.75 1013.46 1013.36 1013.19 1013.31 1012.95 1010.28 1006.23 1005.52 1005.08 1004.78 1004.57 1004.29 1003.93 1003.73 1003.01 1002.24 1001.09 1000.22 999.09 998.22 998.15 997.49 997.03 996.90 996.58 996.11 995.66 996.11 995.95 996.04 996.41 996.86 997.09 997.45 997.95
1019.33 1018.67 1018.00 1017.26 1016.47 1015.59 1014.73 1014.18 1013.38 1012.79 1012.57 1012.56 1012.50 1012.49 1011.67 1007.66 1006.06 1005.87 1005.70 1004.85 1003.78 1003.26 1003.02 1002.41 1002.29 1001.55 1000.74 999.60 998.67 998.25 997.55 996.91 996.29 996.19 995.97 996.24 995.91 995.75 996.57 996.40 996.43 997.24 997.71 998.02 998.49
1019.03 1018.27 1017.46 1016.62 1015.82 1015.01 1013.96 1013.07 1012.11 1011.64 1011.85 1011.66 1011.87 1011.25 1009.44 1006.69 1005.56 1004.87 1004.43 1004.09 1004.21 1003.66 1002.99 1002.67 1001.94 1001.23 1000.37 999.55 999.03 997.78 997.19 995.94 995.00 995.73 995.85 996.43 994.77 995.83 996.29 996.38 996.57 997.11 997.92 998.57 998.75
1018.71 1017.91 1017.07 1016.30 1015.43 1014.56 1013.47 1012.17 1011.17 1009.92 1010.71 1010.97 1011.09 1010.34 1007.01 1004.30 1004.80 1003.59 1003.51 1003.67 1003.61 1003.54 1003.40 1002.54 1002.05 1001.13 1000.41 999.32 998.16 997.00 995.49 994.38 994.65 994.75 995.57 995.46 994.98 995.35 995.68 996.11 996.44 997.07 997.97 998.38 998.60
1018.44 1017.63 1016.88 1015.86 1014.98 1013.97 1012.76 1010.87 1008.72 1009.08 1009.17 1009.29 1009.27 1009.37 1004.95 1003.64 1002.85 1003.21 1002.93 1003.33 1003.54 1003.83 1003.28 1002.84 1001.47 1000.66 999.92 998.60 996.38 995.02 994.05 994.20 993.88 993.79 994.69 994.71 994.90 995.21 995.11 995.38 995.98 996.71 997.39 997.77 997.75
1018.19 1017.23 1016.17 1015.11 1014.05 1013.13 1012.46 1010.23 1007.83 1007.42 1007.58 1007.38 1006.65 1005.58 1003.33 1003.12 1002.75 1002.40 1002.39 1002.57 1003.27 1003.48 1003.19 1002.42 1001.70 999.48 998.83 997.77 996.75 995.71 994.75 994.05 993.69 994.07 993.95 993.98 994.63 994.83 994.29 994.75 995.05 995.95 996.57 997.19 997.18
1017.81 1016.90 1015.75 1014.65 1013.46 1012.57 1011.91 1009.53 1008.84 1009.02 1007.39 1006.31 1004.96 1004.31 1003.49 1003.00 1002.16 1001.59 1002.24 1002.42 1003.62 1003.19 1003.08 1001.95 1001.07 1000.13 998.84 998.07 996.91 995.56 994.54 993.91 993.79 993.19 993.70 993.43 993.77 994.19 994.37 994.17 994.41 994.94 995.77 996.39 996.92
1017.41 1016.29 1015.20 1014.03 1013.05 1011.46 1009.79 1008.43 1008.43 1009.33 1008.28 1004.99 1003.48 1002.37 1001.78 1001.65 1001.66 1001.34 1002.40 1002.72 1002.84 1003.00 1002.65 1001.70 1000.16 999.97 998.32 997.65 996.81 995.66 994.30 993.37 992.76 992.76 992.85 992.99 993.70 993.80 993.62 994.11 994.01 994.06 994.96 995.71 996.28
1017.06 1015.75 1014.91 1014.02 1012.27 1010.39 1008.36 1008.25 1008.48 1009.46 1008.22 1004.98 1003.29 1002.67 1002.17 1001.79 1002.37 1001.79 1002.29 1003.80 1002.36 1001.69 1001.83 1001.80 1000.10 999.08 998.19 996.94 996.53 995.29 994.91 994.20 993.07 992.39 992.08 992.41 992.83 993.34 993.27 993.37 993.51 993.51 994.33 994.91 995.77
1016.44 1015.31 1014.29 1013.82 1012.23 1009.70 1008.09 1007.63 1008.87 1009.40 1007.03 1003.63 1003.21 1002.25 1001.71 1001.36 1001.15 1001.90 1002.99 1003.55 1003.46 1001.82 1001.21 1001.09 999.71 998.85 997.76 997.01 996.09 994.71 995.01 994.45 993.54 992.86 992.55 992.47 993.32 992.06 992.80 992.51 992.73 993.27 993.80 994.47 995.24
1015.73 1014.59 1014.14 1011.59 1010.84 1008.72 1007.59 1007.95 1008.30 1008.76 1005.55 1003.52 1003.55 1002.37 1001.39 1001.05 1000.83 1002.30 1002.78 1003.59 1004.59 1003.96 1002.15 1000.45 999.28 998.25 996.79 997.10 996.22 995.37 994.60 994.54 994.05 993.46 992.35 992.21 992.77 991.76 991.45 990.75 991.85 992.79 993.55 994.03 994.85
1015.08 1013.79 1013.64 1011.96 1009.74 1008.05 1007.99 1007.88 1008.40 1007.15 1005.57 1005.08 1004.05 1003.03 1002.70 1001.82 1001.42 1002.40 1003.08 1004.08 1004.67 1004.23 1002.11 999.92 998.37 997.64 997.47 996.54 995.70 995.22 994.39 993.74 993.61 993.17 992.63 992.48 992.15 990.33 990.06 990.93 991.35 992.39 993.31 993.91 994.61
1014.67 1012.61 1011.05 1009.83 1008.62 1008.19 1007.99 1008.19 1008.05 1006.81 1006.73 1006.54 1005.37 1003.82 1003.22 1002.60 1002.67 1002.46 1002.91 1003.33 1003.84 1003.73 1002.33 999.81 997.19 996.20 997.28 997.44 995.49 994.35 994.13 994.59 992.86 993.93 993.05 993.29 991.53 990.34 990.29 990.52 991.03 992.42 993.55 994.05 994.77
1013.98 1010.73 1008.93 1008.57 1008.27 1008.11 1007.90 1007.94 1008.33 1008.84 1008.32 1007.31 1006.33 1004.68 1003.99 1004.21 1004.58 1003.59 1002.95 1003.81 1003.73 1003.87 1002.81 999.91 996.54 994.72 995.65 995.97 996.12 993.98 993.85 994.77 993.76 993.15 992.63 992.48 992.49 991.61 991.30 990.25 991.17 992.54 993.85 994.60 995.35
1014.09 1010.91 1008.38 1008.18 1007.98 1007.89 1008.25 1008.71 1008.72 1008.77 1008.58 1008.44 1007.62 1006.90 1006.27 1005.66 1005.39 1005.21 1003.75 1004.12 1004.26 1003.41 1003.18 1000.95 997.77 994.40 994.54 995.29 995.58 994.01 993.79 994.44 993.83 992.34 991.69 991.23 992.01 992.03 992.61 992.54 992.22 993.65 995.03 995.79 996.59
1012.69 1009.36 1008.28 1007.60 1006.53 1006.85 1007.96 1008.84 1008.70 1009.29 1008.81 1008.79 1008.52 1007.85 1007.49 1007.34 1006.97 1006.05 1004.88 1004.75 1004.64 1004.04 1002.89 1001.96 999.32 995.01 994.64 994.42 995.06 994.00 993.30 993.80 993.63 992.13 991.49 991.29 991.88 992.13 993.71 994.91 995.65 996.38 997.20 997.85 998.68
1012.96 1009.02 1008.19 1007.89 1007.77 1008.59 1008.95 1009.60 1009.38 1008.87 1008.71 1008.38 1008.73 1008.29 1008.54 1008.29 1007.33 1006.48 1004.79 1004.39 1004.61 1004.32 1003.43 1001.95 1000.28 996.57 994.33 994.03 994.60 993.97 993.51 993.44 992.91 992.67 992.81 993.15 993.88 992.82 994.52 996.46 997.80 998.69 999.21 999.94 1000.23
1013.51 1009.55 1008.47 1008.48 1009.11 1009.69 1009.97 1009.43 1009.63 1009.08 1009.04 1008.83 1008.93 1008.64 1008.78 1008.46 1007.62 1006.31 1004.75 1003.79 1004.12 1004.17 1003.45 1002.10 1000.69 997.90 995.56 994.45 994.26 994.63 994.25 993.82 993.68 993.53 993.65 995.51 997.61 996.35 996.83 998.59 999.64 999.78 1000.67 1001.33 1001.84
1013.85 1010.97 1010.23 1009.95 1010.24 1010.45 1009.82 1008.91 1008.92 1009.33 1009.10 1009.01 1008.74 1008.64 1008.29 1007.83 1007.33 1005.99 1004.93 1003.85 1003.56 1003.65 1003.12 1002.79 1000.98 998.39 995.72 994.80 995.42 996.07 995.01 993.85 993.49 994.31 994.90 997.31 999.58 999.81 999.99 1000.17 1000.37 1000.91 1001.34 1002.05 1002.81
1015.04 1013.95 1014.45 1012.30 1011.51 1010.63 1009.20 1009.07 1009.13 1009.07 1009.25 1008.73 1008.73 1008.83 1007.76 1006.71 1005.73 1004.93 1004.29 1003.15 1002.86 1002.87 1002.40 1001.97 1000.32 998.35 996.77 996.11 995.31 995.07 994.98 993.97 993.89 994.54 996.47 998.50 1000.41 1000.92 1002.01 1001.78 1001.14 1001.60 1002.50 1003.03 1004.19
1017.53 1017.14 1016.24 1014.60 1012.31 1010.46 1009.88 1010.03 1009.55 1009.30 1009.69 1008.96 1008.79 1007.75 1007.13 1006.09 1005.34 1003.68 1003.55 1002.67 1002.79 1002.66 1002.49 1001.67 1000.11 997.87 996.71 996.45 996.01 995.75 995.41 995.25 994.41 995.25 996.27 999.69 1001.73 1002.61 1003.48 1003.41 1002.76 1002.85 1003.63 1004.63 1005.78
1018.79 1018.25 1017.55 1015.05 1012.72 1011.23 1010.75 1010.51 1010.07 1009.96 1009.83 1008.87 1008.21 1007.09 1005.74 1004.67 1003.62 1002.19 1002.08 1001.49 1001.73 1002.13 1001.89 1001.84 1000.16 997.99 997.23 996.93 997.45 996.97 995.75 995.67 994.73 997.33 998.60 1000.09 1001.98 1003.00 1004.09 1004.50 1004.44 1004.67 1005.51 1006.47 1007.47
Wind_Speed
19 19 19 19 19 19 19 19 19 19 19 19 18 19 20 21 23 24 26 20 11 22 10 18 20 15 20 23 23 23 18 21 29 26 20 21 22 7 5 2 7 13 10 16 14
19 19 20 20 21 21 21 21 21 20 20 19 19 19 19 19 24 26 27 19 21 17 17 17 19 17 18 19 21 23 19 31 24 23 23 20 22 15 9 8 12 16 8 17 11
19 19 20 21 22 22 22 22 22 22 21 21 19 17 17 17 19 6 7 7 9 21 23 23 20 21 25 24 25 27 29 22 27 26 24 21 21 15 12 15 16 19 14 15 14
20 20 21 21 22 23 24 24 24 23 23 22 20 18 15 14 11 7 10 9 5 9 15 20 23 25 27 30 28 29 31 29 26 22 23 20 17 15 13 14 14 19 19 19 16
21 21 22 24 25 25 24 25 26 25 23 22 20 17 13 14 30 27 34 15 8 10 17 20 23 26 32 28 27 34 31 29 28 27 25 22 19 15 13 15 12 8 19 16 17
22 23 24 24 25 24 24 24 24 24 23 21 18 13 9 22 13 14 17 20 22 18 19 19 22 24 24 31 31 28 29 29 25 27 25 24 14 15 18 14 16 12 9 11 11
21 22 23 24 26 28 27 26 26 25 25 20 15 10 13 30 15 22 19 25 21 19 23 21 22 25 22 27 29 28 29 28 28 27 24 21 20 24 20 18 15 18 12 8 9
23 23 25 25 26 29 30 29 30 29 24 21 13 11 11 17 16 17 11 18 21 21 24 22 24 26 28 20 30 29 31 25 28 29 26 17 26 21 19 18 19 16 14 13 14
24 25 26 27 28 28 29 32 33 31 22 14 8 12 15 13 14 16 8 11 14 18 22 21 23 26 24 25 21 28 24 35 28 28 23 26 20 19 23 19 17 16 15 17 19
24 25 27 29 29 28 29 34 30 18 11 11 14 10 22 12 11 11 9 9 5 10 20 25 20 22 21 21 21 33 34 30 28 27 25 28 25 20 19 25 21 18 19 17 17
27 26 27 28 29 28 20 13 15 4 4 19 24 21 26 27 21 14 11 17 2 10 20 24 18 22 30 31 27 26 25 28 25 26 23 25 24 23 17 20 21 20 17 17 15
28 27 30 29 30 27 15 8 15 9 16 21 22 22 26 24 23 19 11 9 6 13 21 20 22 28 27 30 31 30 29 26 25 26 28 24 24 22 23 17 20 20 19 18 16
27 28 29 30 28 17 12 15 11 11 8 14 11 11 14 8 15 19 10 16 11 13 17 21 28 29 30 31 31 30 29 24 24 27 24 20 19 22 23 22 16 18 19 19 18
28 30 29 29 15 13 10 14 10 7 5 10 6 5 12 4 9 12 5 5 19 21 20 14 25 29 29 28 31 29 28 26 26 18 17 22 15 19 21 22 17 16 17 17 18
29 30 29 17 12 8 16 11 11 2 6 8 10 8 18 23 13 13 8 7 14 20 19 10 19 28 30 30 29 26 29 28 28 17 22 21 14 18 21 21 22 17 14 18 17
31 31 25 13 11 13 15 12 1 5 6 11 22 23 23 21 14 8 7 7 3 9 20 25 23 20 25 30 30 24 27 31 25 18 16 18 16 19 23 28 21 19 17 16 19
33 35 20 10 8 17 11 4 6 9 19 19 31 31 21 17 12 6 4 2 4 3 12 16 24 22 20 19 31 30 22 17 15 13 10 22 21 13 23 22 22 20 18 16 17
35 36 9 11 12 12 8 5 8 22 19 25 29 27 2 22 18 9 11 13 14 11 4 11 17 26 17 19 18 31 23 8 22 13 19 21 20 21 11 19 23 21 17 15 16
33 8 8 9 10 8 9 5 10 15 21 24 23 17 19 22 16 15 13 2 2 11 6 10 15 20 22 18 24 29 24 23 15 18 15 18 16 13 5 17 22 22 18 17 14
12 10 4 12 11 9 6 3 9 15 22 17 7 9 19 19 18 18 9 6 10 10 7 7 9 19 20 15 21 24 22 21 14 21 16 22 18 13 14 11 19 20 17 15 18
7 6 9 17 11 9 9 10 15 17 20 11 9 15 15 13 10 8 5 4 6 8 10 2 7 16 17 12 18 16 15 17 17 14 13 10 17 19 20 17 18 18 15 14 17
8 8 9 9 7 10 11 15 11 18 20 12 10 10 3 7 6 7 11 3 3 8 8 5 5 11 22 15 17 17 18 23 11 20 4 6 8 22 26 22 19 17 15 17 17
11 11 9 9 7 10 10 9 16 19 21 7 10 7 4 5 8 12 12 12 6 13 3 6 3 5 11 19 19 10 22 19 23 12 13 6 1 10 22 18 18 21 20 16 16
8 7 7 8 7 12 12 14 18 16 17 12 16 11 18 9 8 11 16 11 19 9 12 1 4 11 9 12 10 22 19 25 22 10 2 5 8 12 17 19 18 21 20 21 17
7 6 11 8 11 18 14 18 21 19 8 15 5 14 22 10 8 6 17 20 11 2 6 9 9 14 13 16 18 18 22 19 23 20 7 13 15 15 15 17 20 18 20 21 20
7 6 6 16 16 17 15 20 24 24 18 9 12 24 22 18 11 25 23 20 4 2 4 4 6 11 10 8 9 16 18 17 24 16 10 22 15 16 16 13 16 19 20 19 18
6 6 5 13 14 14 15 21 24 21 11 20 20 20 22 21 24 25 21 22 14 5 2 3 5 3 6 13 12 5 20 17 14 17 13 18 15 19 17 16 16 18 18 19 19
Wind_Direction
349 345 342 338 334 330 327 322 318 315 313 312 312 314 316 315 307 288 269 252 260 242 232 272 276 222 225 242 226 228 239 240 241 239 244 262 266 188 28 270 271 274 245 105 117
345 341 338 334 330 327 322 318 315 312 310 308 310 313 316 317 304 284 268 263 251 244 239 239 243 225 219 222 233 224 228 237 242 249 254 249 262 241 169 210 243 254 229 118 136
341 337 334 332 328 324 320 316 314 311 308 309 308 309 311 316 296 243 45 29 258 231 233 245 244 252 232 220 219 229 235 232 242 255 257 255 243 244 186 208 220 229 206 145 153
340 336 333 328 323 319 316 314 312 309 307 307 304 303 301 294 267 99 94 41 79 196 226 232 237 239 240 228 222 228 234 238 250 237 250 264 279 248 204 224 208 227 203 170 168
335 332 329 326 324 319 314 310 307 302 301 299 296 294 286 253 247 267 294 263 245 220 219 226 229 232 234 234 228 232 231 230 238 258 271 277 247 252 214 221 234 239 209 209 166
333 330 327 324 322 315 309 306 301 298 297 291 288 285 251 257 283 296 293 275 267 248 228 223 233 227 245 236 230 232 236 237 227 232 242 254 233 247 256 244 204 232 235 192 174
330 327 325 321 320 316 312 307 300 296 294 292 283 253 251 249 297 304 287 286 277 253 250 251 237 251 234 247 240 240 245 230 234 233 243 230 237 227 231 234 204 218 203 222 225
330 327 323 320 316 317 312 306 298 294 291 286 270 243 251 262 256 273 274 270 262 269 272 255 262 252 250 243 245 233 240 238 221 226 229 223 239 222 223 228 224 207 193 212 230
328 324 321 319 317 314 311 302 296 283 274 257 234 217 263 210 220 252 205 292 277 246 269 272 236 249 242 239 232 237 222 228 222 215 217 216 231 232 207 221 216 193 205 220 221
327 323 321 318 317 316 312 298 279 277 226 221 238 229 233 257 325 309 288 222 268 303 252 253 247 227 237 222 217 215 215 220 223 215 207 223 231 231 232 203 209 208 207 226 211
327 323 319 318 317 316 321 309 1 302 259 297 302 258 280 287 294 302 294 265 233 254 261 223 244 224 218 230 231 218 222 223 222 221 224 213 225 216 227 214 199 204 212 212 217
327 325 321 320 318 314 296 294 353 325 309 286 267 262 265 269 269 277 312 253 264 259 257 225 226 249 217 228 227 235 220 219 219 216 215 216 215 219 224 237 203 195 200 205 207
327 322 321 321 317 295 260 5 20 15 283 306 294 273 309 292 299 291 293 317 206 217 252 241 221 228 238 215 224 228 234 227 218 221 202 210 207 222 223 218 216 198 193 199 198
326 321 324 328 290 321 324 343 61 24 297 278 16 331 298 269 291 301 128 183 280 231 232 237 256 221 235 233 218 220 227 236 242 204 212 188 208 205 221 207 198 189 191 184 190
324 322 324 317 301 300 342 346 41 296 337 50 356 294 283 269 259 216 192 168 236 274 242 217 253 235 214 228 234 221 213 228 238 240 222 191 215 204 212 207 185 184 193 184 180
323 320 328 295 221 266 335 330 227 273 346 4 341 329 329 322 332 29 177 179 6 286 279 261 239 263 210 215 236 235 212 217 230 241 214 190 195 231 188 210 185 184 184 187 175
323 317 314 291 289 323 335 356 301 3 354 344 335 331 332 324 354 206 236 158 203 218 251 249 240 233 250 265 211 231 233 196 203 223 181 213 192 233 203 194 187 183 177 192 171
326 310 259 244 287 339 297 308 304 1 348 333 332 318 331 11 340 318 270 280 216 222 287 230 214 221 210 239 233 214 223 213 192 168 206 219 222 224 269 209 181 170 176 176 161
321 304 252 10 331 313 297 334 5 350 329 331 321 335 342 344 343 337 336 305 251 200 239 225 251 191 199 215 214 210 216 200 219 190 206 184 193 85 66 158 166 153 174 167 156
317 295 327 336 322 285 327 24 318 355 334 333 310 332 327 338 337 334 327 37 347 8 257 325 274 192 189 204 251 236 192 200 230 187 213 191 149 145 134 101 135 130 110 98 91
271 273 36 341 303 332 39 351 336 340 329 330 294 304 312 321 311 305 335 306 17 313 310 327 283 190 179 188 220 207 227 203 221 227 210 180 168 151 140 125 98 95 99 112 117
298 337 37 342 25 7 14 339 319 343 334 330 291 322 297 304 290 294 286 216 185 343 315 221 308 260 186 197 221 203 223 204 203 224 317 358 144 151 136 138 136 131 114 104 102
306 312 23 345 22 352 342 317 340 353 337 336 314 321 304 275 304 284 323 330 102 347 260 354 256 240 236 189 206 189 222 196 230 235 215 139 94 310 107 120 134 142 128 126 126
290 354 355 305 6 339 331 335 340 353 327 324 310 310 311 300 276 285 291 311 324 300 277 234 263 264 210 198 191 194 258 204 213 231 266 25 152 114 123 138 148 130 142 146 132
5 17 17 312 330 308 327 350 345 337 327 320 286 310 323 305 290 264 314 308 324 50 306 187 238 233 240 225 210 180 223 216 207 219 166 152 142 139 138 137 131 121 113 116 112
349 351 337 293 298 330 13 346 340 340 336 333 312 323 315 309 309 309 311 305 290 259 3 321 282 218 203 134 247 193 219 238 235 199 200 155 139 135 133 128 121 118 120 115 113
3 332 319 290 339 342 349 346 339 339 306 326 330 319 317 320 310 297 281 273 249 259 192 282 300 264 180 147 195 254 224 215 204 108 165 158 135 135 134 135 128 124 121 122 120